Location: Newark
(42.9858°N, 0.6717°E)
Time: 18:09:25
(UTC+00:00)

Vanguard 1 - All Passes

Search period start: 12 November 2019 00:00
Search period end: 22 November 2019 00:00
Orbit: 652 x 3831 km, 34.2° (Epoch: 11 November)

Date Brightness Start Highest point End Pass type
(mag) Time Alt. Az. Time Alt. Az. Time Alt. Az.
12 Nov - 12:22:56 10° SW 12:27:22 22° SSE 12:30:57 10° ESE daylight
12 Nov - 14:42:51 10° WSW 14:46:48 28° S 14:50:48 10° ESE daylight
12 Nov - 17:03:05 10° WSW 17:06:17 18° SSW 17:10:08 10° SSE visible
13 Nov - 10:24:40 10° S 10:28:13 14° SSE 10:31:09 10° SE daylight
13 Nov - 12:43:28 10° SW 12:48:12 26° S 12:52:00 10° ESE daylight
13 Nov - 15:03:47 10° WSW 15:07:35 26° S 15:11:31 10° SE daylight
13 Nov - 17:24:50 10° SW 17:27:08 13° SSW 17:29:44 10° S visible
14 Nov - 10:44:04 10° SSW 10:49:11 19° SSE 10:53:01 10° ESE daylight
14 Nov - 13:04:12 10° WSW 13:09:02 29° S 13:12:56 10° ESE daylight
14 Nov - 15:24:49 10° WSW 15:28:22 23° SSW 15:32:07 10° SE daylight
15 Nov - 08:49:01 10° SSE 08:49:23 10° SSE 08:49:46 10° SSE daylight
15 Nov - 11:04:10 10° SW 11:10:06 24° SSE 11:14:21 10° ESE daylight
15 Nov - 13:25:04 10° WSW 13:29:50 31° S 13:33:46 10° ESE daylight
15 Nov - 15:46:01 10° WSW 15:49:08 18° SSW 15:52:27 10° SSE daylight
16 Nov - 09:05:15 10° S 09:10:27 15° SSE 09:14:29 10° SE daylight
16 Nov - 11:24:39 10° SW 11:31:00 28° S 11:35:25 10° ESE daylight
16 Nov - 13:46:02 10° WSW 13:50:38 30° S 13:54:30 10° SE daylight
16 Nov - 16:07:35 10° SW 16:09:54 14° SSW 16:12:20 10° S daylight
17 Nov - 09:24:28 10° SSW 09:31:29 20° SSE 09:36:26 10° ESE daylight
17 Nov - 11:45:23 10° SW 11:51:54 32° S 11:56:21 10° ESE daylight
17 Nov - 14:07:05 10° WSW 14:11:23 27° SSW 14:15:08 10° SE daylight
18 Nov - 07:28:36 10° SSE 07:31:05 11° SSE 07:33:20 10° SE daylight
18 Nov - 09:44:24 10° SW 09:52:30 26° SSE 09:57:50 10° ESE daylight
18 Nov - 12:06:17 10° WSW 12:12:44 35° S 12:17:12 10° ESE daylight
18 Nov - 14:28:15 10° WSW 14:32:07 22° SSW 14:35:36 10° SE daylight
19 Nov - 07:45:13 10° S 07:52:13 16° SSE 07:57:30 10° ESE daylight
19 Nov - 10:04:48 10° SW 10:13:30 31° SSE 10:18:58 10° ESE daylight
19 Nov - 12:27:18 10° WSW 12:33:35 35° S 12:37:58 10° ESE daylight
19 Nov - 14:49:36 10° WSW 14:52:48 17° SSW 14:55:47 10° SSE daylight
20 Nov - 08:04:05 10° SSW 08:13:19 21° SSE 08:19:38 10° ESE daylight
20 Nov - 10:25:30 10° SW 10:34:27 36° S 10:39:57 10° ESE daylight
20 Nov - 12:48:24 10° WSW 12:54:22 34° S 12:58:39 10° SE daylight
20 Nov - 15:11:28 10° SW 15:13:27 12° SSW 15:15:22 10° S daylight
21 Nov - 06:09:23 10° SSE 06:12:14 11° SSE 06:14:51 10° SE visible
21 Nov - 08:23:47 10° SSW 08:34:25 27° SSE 08:41:11 10° ESE daylight
21 Nov - 10:46:25 10° WSW 10:55:22 40° S 11:00:49 10° ESE daylight
21 Nov - 13:09:35 10° WSW 13:15:07 30° SSW 13:19:13 10° SE daylight
